When you browse on this site, cookies collect data to enhance your experience and personalize the content and advertising you see.
Visit our Privacy Policy to learn more. By continuing to use the site, you agree to this use of cookies and data.
  • In Österreich
  • Länderverzeichnis
  • Für 7 Tage
  • Wassertemperatur
  • Wetterkarte
  • News
  • Widgets
  • user-avatar
    Anmelden

    Stündliche Wetter Anatolivka

    Heute, 31 Mai, Sonntag

    Zeit Temperatur Niederschläge Wind Luftdruck Luftfeuchtigkeit
    00:00 +13°C° 0.2 mm 3 m/S 753 mmHg 83%
    01:00 +12°C° 0.2 mm 3 m/S 753 mmHg 84%
    02:00 +13°C° 0 mm 2 m/S 753 mmHg 85%
    03:00 +12°C° 0.1 mm 3 m/S 753 mmHg 86%
    04:00 +12°C° 0.1 mm 4 m/S 753 mmHg 86%
    05:00 +12°C° 0.1 mm 5 m/S 752 mmHg 87%
    06:00 +14°C° 0 mm 5 m/S 752 mmHg 78%
    07:00 +15°C° 0 mm 6 m/S 753 mmHg 70%
    08:00 +16°C° 0 mm 6 m/S 752 mmHg 61%
    09:00 +17°C° 0 mm 6 m/S 752 mmHg 57%
    10:00 +19°C° 0 mm 6 m/S 752 mmHg 53%
    11:00 +20°C° 0 mm 6 m/S 752 mmHg 50%
    12:00 +20°C° 0 mm 6 m/S 752 mmHg 52%
    13:00 +20°C° 0 mm 7 m/S 752 mmHg 54%
    14:00 +20°C° 0 mm 7 m/S 752 mmHg 55%
    15:00 +20°C° 0.3 mm 7 m/S 752 mmHg 59%
    16:00 +19°C° 0.3 mm 6 m/S 752 mmHg 62%
    17:00 +19°C° 0.3 mm 6 m/S 752 mmHg 66%
    18:00 +17°C° 0.3 mm 5 m/S 752 mmHg 71%
    19:00 +15°C° 0.3 mm 5 m/S 752 mmHg 76%
    20:00 +14°C° 0.3 mm 5 m/S 752 mmHg 82%
    21:00 +14°C° 0 mm 4 m/S 752 mmHg 81%
    22:00 +13°C° 0 mm 3 m/S 752 mmHg 80%
    23:00 +14°C° 0 mm 1 m/S 751 mmHg 79%

    Morgen, 1 Juni, Montag

    Zeit Temperatur Niederschläge Wind Luftdruck Luftfeuchtigkeit
    00:00 +13°C° 0 mm 2 m/S 751 mmHg 80%
    01:00 +13°C° 0 mm 2 m/S 751 mmHg 81%
    02:00 +13°C° 0 mm 2 m/S 751 mmHg 82%
    03:00 +12°C° 0 mm 3 m/S 751 mmHg 83%
    04:00 +12°C° 0 mm 3 m/S 750 mmHg 84%
    05:00 +12°C° 0 mm 4 m/S 750 mmHg 84%
    06:00 +12°C° 0 mm 5 m/S 750 mmHg 81%
    07:00 +13°C° 0 mm 5 m/S 750 mmHg 78%
    08:00 +14°C° 0 mm 6 m/S 750 mmHg 74%
    09:00 +15°C° 0 mm 6 m/S 750 mmHg 70%
    10:00 +16°C° 0 mm 6 m/S 750 mmHg 65%
    11:00 +17°C° 0 mm 6 m/S 750 mmHg 61%
    12:00 +17°C° 0.2 mm 6 m/S 751 mmHg 63%
    13:00 +16°C° 0.2 mm 6 m/S 751 mmHg 66%
    14:00 +16°C° 0.2 mm 6 m/S 751 mmHg 69%
    15:00 +16°C° 0 mm 6 m/S 751 mmHg 69%
    16:00 +15°C° 0 mm 6 m/S 751 mmHg 69%
    17:00 +15°C° 0 mm 6 m/S 751 mmHg 69%
    18:00 +14°C° 0 mm 5 m/S 752 mmHg 73%
    19:00 +13°C° 0 mm 4 m/S 752 mmHg 78%
    20:00 +12°C° 0 mm 3 m/S 752 mmHg 82%
    21:00 +11°C° 0 mm 3 m/S 752 mmHg 84%
    22:00 +10°C° 0 mm 3 m/S 752 mmHg 85%
    23:00 +10°C° 0 mm 3 m/S 752 mmHg 87%

    übermorgen, 2 Juni, Dienstag

    Zeit Temperatur Niederschläge Wind Luftdruck Luftfeuchtigkeit
    00:00 +9°C° 0 mm 3 m/S 752 mmHg 88%
    01:00 +9°C° 0 mm 3 m/S 752 mmHg 89%
    02:00 +8°C° 0 mm 3 m/S 752 mmHg 90%
    03:00 +8°C° 0 mm 3 m/S 752 mmHg 89%
    04:00 +8°C° 0 mm 3 m/S 752 mmHg 88%
    05:00 +8°C° 0 mm 3 m/S 752 mmHg 86%
    06:00 +10°C° 0 mm 3 m/S 752 mmHg 77%
    07:00 +11°C° 0 mm 3 m/S 752 mmHg 68%
    08:00 +13°C° 0 mm 3 m/S 753 mmHg 59%
    09:00 +14°C° 0 mm 3 m/S 753 mmHg 54%
    10:00 +16°C° 0 mm 3 m/S 753 mmHg 49%
    11:00 +17°C° 0 mm 3 m/S 753 mmHg 44%
    12:00 +17°C° 0 mm 3 m/S 753 mmHg 44%
    13:00 +18°C° 0 mm 4 m/S 752 mmHg 45%
    14:00 +18°C° 0 mm 4 m/S 752 mmHg 45%
    15:00 +18°C° 0 mm 4 m/S 752 mmHg 48%
    16:00 +17°C° 0 mm 4 m/S 752 mmHg 51%
    17:00 +17°C° 0 mm 4 m/S 752 mmHg 54%
    18:00 +15°C° 0 mm 4 m/S 752 mmHg 60%
    19:00 +14°C° 0 mm 3 m/S 752 mmHg 65%
    20:00 +13°C° 0 mm 3 m/S 752 mmHg 70%
    21:00 +13°C° 0 mm 3 m/S 752 mmHg 70%
    22:00 +13°C° 0 mm 2 m/S 752 mmHg 69%
    23:00 +13°C° 0 mm 2 m/S 752 mmHg 68%

    3 Juni, Mittwoch

    Zeit Temperatur Niederschläge Wind Luftdruck Luftfeuchtigkeit
    00:00 +13°C° 0 mm 2 m/S 751 mmHg 69%
    01:00 +12°C° 0 mm 2 m/S 751 mmHg 70%
    02:00 +12°C° 0 mm 2 m/S 751 mmHg 71%
    03:00 +12°C° 0 mm 2 m/S 751 mmHg 72%
    04:00 +12°C° 0 mm 1 m/S 751 mmHg 73%
    05:00 +12°C° 0 mm 1 m/S 751 mmHg 74%
    06:00 +13°C° 0 mm 1 m/S 751 mmHg 68%
    07:00 +15°C° 0 mm 1 m/S 751 mmHg 62%
    08:00 +16°C° 0 mm 1 m/S 751 mmHg 56%
    09:00 +17°C° 0 mm 2 m/S 751 mmHg 53%
    10:00 +18°C° 0 mm 2 m/S 751 mmHg 50%
    11:00 +19°C° 0 mm 3 m/S 751 mmHg 47%
    12:00 +19°C° 0 mm 4 m/S 751 mmHg 48%
    13:00 +19°C° 0 mm 5 m/S 751 mmHg 50%
    14:00 +19°C° 0 mm 6 m/S 751 mmHg 51%
    15:00 +19°C° 0 mm 6 m/S 751 mmHg 54%
    16:00 +17°C° 0 mm 6 m/S 751 mmHg 57%
    17:00 +17°C° 0 mm 6 m/S 751 mmHg 60%
    18:00 +16°C° 0 mm 5 m/S 751 mmHg 66%
    19:00 +15°C° 0 mm 5 m/S 752 mmHg 73%
    20:00 +14°C° 0 mm 5 m/S 752 mmHg 79%
    21:00 +14°C° 0 mm 4 m/S 752 mmHg 78%
    22:00 +14°C° 0 mm 4 m/S 752 mmHg 78%
    23:00 +14°C° 0 mm 4 m/S 753 mmHg 78%

    4 Juni, Donnerstag

    Zeit Temperatur Niederschläge Wind Luftdruck Luftfeuchtigkeit
    00:00 +13°C° 0.1 mm 4 m/S 753 mmHg 79%
    01:00 +13°C° 0.1 mm 4 m/S 753 mmHg 81%
    02:00 +12°C° 0.1 mm 4 m/S 752 mmHg 82%
    03:00 +13°C° 0 mm 4 m/S 753 mmHg 82%
    04:00 +13°C° 0 mm 4 m/S 753 mmHg 83%
    05:00 +13°C° 0 mm 4 m/S 753 mmHg 83%
    06:00 +14°C° 0 mm 4 m/S 753 mmHg 76%
    07:00 +17°C° 0 mm 4 m/S 753 mmHg 69%
    08:00 +19°C° 0 mm 4 m/S 753 mmHg 62%
    09:00 +20°C° 0 mm 5 m/S 753 mmHg 58%
    10:00 +21°C° 0 mm 6 m/S 754 mmHg 54%
    11:00 +22°C° 0 mm 7 m/S 754 mmHg 50%
    12:00 +22°C° 0.1 mm 8 m/S 754 mmHg 52%
    13:00 +21°C° 0.1 mm 8 m/S 753 mmHg 53%
    14:00 +21°C° 0.1 mm 9 m/S 753 mmHg 54%
    15:00 +21°C° 0.1 mm 8 m/S 753 mmHg 56%
    16:00 +20°C° 0.1 mm 8 m/S 753 mmHg 59%
    17:00 +20°C° 0.1 mm 8 m/S 753 mmHg 61%
    18:00 +18°C° 0 mm 7 m/S 753 mmHg 67%
    19:00 +17°C° 0 mm 7 m/S 753 mmHg 72%
    20:00 +16°C° 0 mm 6 m/S 753 mmHg 78%
    21:00 +16°C° 0 mm 7 m/S 753 mmHg 78%
    22:00 +16°C° 0 mm 7 m/S 754 mmHg 77%
    23:00 +16°C° 0 mm 7 m/S 754 mmHg 77%

    5 Juni, Freitag

    Zeit Temperatur Niederschläge Wind Luftdruck Luftfeuchtigkeit
    00:00 +16°C° 0 mm 7 m/S 754 mmHg 79%
    01:00 +16°C° 0 mm 7 m/S 754 mmHg 81%
    02:00 +16°C° 0 mm 7 m/S 753 mmHg 83%
    03:00 +16°C° 0 mm 7 m/S 753 mmHg 83%
    04:00 +16°C° 0 mm 7 m/S 753 mmHg 83%
    05:00 +16°C° 0 mm 7 m/S 753 mmHg 83%
    06:00 +17°C° 0 mm 8 m/S 753 mmHg 79%
    07:00 +20°C° 0 mm 8 m/S 754 mmHg 75%
    08:00 +21°C° 0 mm 8 m/S 754 mmHg 71%
    09:00 +22°C° 0 mm 8 m/S 754 mmHg 67%
    10:00 +23°C° 0 mm 9 m/S 754 mmHg 63%
    11:00 +24°C° 0 mm 9 m/S 754 mmHg 60%
    12:00 +24°C° 0 mm 9 m/S 753 mmHg 58%
    13:00 +24°C° 0 mm 10 m/S 753 mmHg 57%
    14:00 +26°C° 0 mm 10 m/S 753 mmHg 56%
    15:00 +24°C° 0 mm 10 m/S 753 mmHg 57%
    16:00 +24°C° 0 mm 10 m/S 753 mmHg 59%
    17:00 +23°C° 0 mm 9 m/S 753 mmHg 60%
    18:00 +22°C° 0.1 mm 7 m/S 753 mmHg 66%
    19:00 +21°C° 0.1 mm 5 m/S 753 mmHg 72%
    20:00 +20°C° 0.1 mm 3 m/S 753 mmHg 78%
    21:00 +19°C° 0 mm 3 m/S 754 mmHg 79%
    22:00 +19°C° 0 mm 3 m/S 754 mmHg 81%
    23:00 +18°C° 0 mm 3 m/S 754 mmHg 82%
    Mehr zeigen